User: anonymous   Login
Location: Holyhead Bay
(53.3667°N, 4.6667°W)
Time: 17:52:50
(UTC+00:00)
Language:

FENGYUN 1C DEB - Orbit

View from above orbital plane
View from above orbital plane
View from above satellite
View from above satellite

Ground track
Ground track

The orbit data is extracted from the following two-line orbital elements,

1 30420U 99025AEK 21173.48072461  .00000757  00000-0  95425-4 0  9998
2 30420  98.9794   0.3236 0160509 250.5903 162.6137 14.77217687771546
Epoch (UTC): 22 June 2021 11:32:14
Eccentricity: 0.0160509
inclination: 98.9794°
perigee height: 525 km
apogee height: 751 km
right ascension of ascending node: 0.3236°
argument of perigee: 250.5903°
revolutions per day: 14.77217687
mean anomaly at epoch: 162.6137°
orbit number at epoch: 77154

The dashed part of the orbit path shows where the satellite is in the earth's shadow,  

DLR